Regional Weather Roundup
Issued by NWS Newport/Morehead, NC

Current Version | Previous Version | Graphics & Text | Print | Product List | Glossary On
Versions: 1 2 3 4 5 6 7 8 9 10 11 12 13 14 15 16 17 18 19 20 21 22 23 24 25 26 27 28 29 30 31 32 33 34 35 36 37 38 39 40 41 42 43 44 45 46 47 48 49 50
187 ASUS42 KMHX 161614 RWRMHX WEATHER ROUNDUP FOR EASTERN NORTH CAROLINA NATIONAL WEATHER SERVICE NEWPORT/MOREHEAD CITY NC 1200 PM EDT MON OCT 16 2017 NOTE: "FAIR" INDICATES FEW OR NO CLOUDS BELOW 12,000 FEET WITH NO SIGNIFICANT WEATHER AND/OR OBSTRUCTIONS TO VISIBILITY NCZ015>017-031-032-045>047-102-103-161700- NORTH COAST CITY SKY/WX TMP DP RH WIND PRES REMARKS EDENTON CLOUDY 69 61 75 N13G20 30.03R ELIZABETH CITY CLOUDY 67 63 87 N15G24 30.02S KITTY HAWK CLOUDY 68 63 84 N7G18 30.00R MANTEO CLOUDY 69 64 84 NE18 30.01R $$ NCZ045>047-081-094-103-104-161700- CENTRAL COAST CITY SKY/WX TMP DP RH WIND PRES REMARKS FRISCO CLOUDY 78 71 79 W8 29.99S $$ NCZ095-097-098-100-101-161700- SOUTHERN COAST CITY SKY/WX TMP DP RH WIND PRES REMARKS BEAUFORT CLOUDY 79 71 76 W5 29.98F CEDAR ISLAND NOT AVBL JACKSONVILLE PTSUNNY 80 68 66 W10 29.98F PINEY ISLAND N/A N/A N/A N/A W9 29.98F WILMINGTON SUNNY 84 67 56 W10 29.98F $$ NCZ011>013-027>030-043-044-078>080-089-090>093-098-161700- COASTAL PLAIN CITY SKY/WX TMP DP RH WIND PRES REMARKS AHOSKIE CLOUDY 62 55 77 N13G21 30.07R CLINTON CLOUDY 73 68 84 N9 30.02S ELIZABETHTOWN NOT AVBL GOLDSBORO PTSUNNY 72 64 78 N10 30.01R GREENVILLE PTSUNNY 70 63 78 NE13 30.02S HAVELOCK PTSUNNY 81 69 67 W8 29.99F KENANSVILLE CLOUDY 73 68 83 NW10 30.01S KINSTON CLOUDY 77 68 73 N7 30.01S NEW BERN MOSUNNY 80 69 69 N8 30.00F RICHLANDS CLOUDY 79 69 71 NW7 30.00F ROCKY MOUNT RAIN 60 59 96 N15 30.08R FOG WASHINGTON CLOUDY 74 67 77 N7 30.00F WHITEVILLE MOSUNNY 78 69 73 W3 30.00S $$ AMZ130-135-150-152-154-156-158-170-250-252-270-ANZ085-086-088-633-658-670-161700- MARINE OBSERVATIONS STATION/POSITION TIME TEMP WIND PRES WAVE SWELL AIR SEA DIR/SP/G HT/PER HT/PER (UTC) (F) (DEG/KT/KT) (MB) (FT/S) (FT/S) CHESAPEAKE LIGHT NOT AVBL 64 E VA BEACH 1450 70 71 320/ 12/ 16 1015.5 3/ 8 2/ 8 DUCK 1536 67 72 360/ 19/ 21 1015.6 2 E DUCK 1530 72 N/A 3/ 4 OREGON INLET 1536 71 75 340/ 11/ 17 1015.7 13E OREGON INLT 1548 73 N/A 3/ 8 2/ 8 HATTERAS CG 1536 75 77 280/ 11/ 12 1015.7 DIAMOND BUOY 1550 76 77 280/ 12/ 14 1015.3 3/ 9 2/ 9 CAPE LOOKOUT 1600 76 290/ 6/ 8 1014.9 BEAUFORT LAB 1536 78 72 250/ 3/ 5 1015.0 30 SE NEW RVR IN 1508 76 300/ 10/ 12 1015.7 30 SE NEW RVR IN NOT AVBL 27 SE WRIGHTSVLE 1508 75 78 280/ 6/ 10 1015.9 5 SE WRIGHTSVLE 1508 77 77 270/ 8/ 12 1015.6 225 S CAPE HAT 1450 78 80 150/ 4/ 6 1016.9 4/ 8 3/ 8 41 SE CHARLESTON 1550 77 81 300/ 8/ 12 1016.1 3/ 9 3/ 9 $$

USA.gov is the U.S. government's official web portal to all federal, state and local government web resources and services.